Home   Weather   Emmen   Past weeks

Flag for Netherlands Past Weather in Emmen, Netherlands — Yesterday and Last 2 Weeks

Now
61 °F

Cool.


Feels Like: 61 °F
Forecast: 48 / 58 °F
Wind: 2 mph from South

Location: Meppen

Current Time: Oct 1, 2016 at 7:26:32 PM

Latest Report: Oct 1, 2016 at 6:00 PM


Visibility: 6 mi

Pressure: 29.74 "Hg

Humidity: 68%

Dew Point: 50 °F

Location of EmmenLocation

Past Weather in Emmen — Graph

°F

Emmen Temperature Yesterday

Maximum temperature yesterday: 62 °F (at 1:00 PM)
Minimum temperature yesterday: 48 °F (at 10:00 PM)
Average temperature yesterday: 57 °F

High & Low Weather Summary for the Past Weeks

 TemperatureHumidityPressure
High78 °F (Sep 25, 4:00 PM)97% (Sep 20, 4:00 AM)30.31 "Hg (Sep 20, 4:00 AM)
Low42 °F (Sep 24, 4:00 AM)37% (Sep 25, 4:00 PM)29.74 "Hg (Oct 1, 6:00 PM)
Average58 °F76%30.09 "Hg
* Reported Sep 16 6:00 PM — Oct 1 6:00 PM, Emmen, Weather by CustomWeather, © 2016

Note: Actual official high and low records may vary slightly from our data, if they occured in-between our weather recording intervals... More about our weather records

Advertising

Emmen Weather History for the Previous 24 Hours

Scroll right to see more
 ConditionsComfort  
Time TempWeatherWind HumidityBarometerVisibility
6:00 PM
Sat, Oct 1
61 °FCool.2 mph68%29.74 "Hg6 mi
4:00 PM62 °FCool.2 mph62%29.75 "Hg6 mi
3:00 PM62 °FCool.2 mph62%29.76 "Hg6 mi
1:00 PM60 °FCool.2 mph70%29.80 "Hg6 mi
12:00 PM60 °FCool.2 mph72%29.81 "Hg6 mi
10:00 AM53 °FCool.1 mph91%29.83 "Hg4 mi
9:00 AM51 °FCool.1 mph92%29.83 "Hg4 mi
7:00 AM49 °FCool.No wind95%29.83 "Hg3 mi
6:00 AM47 °FCool.No wind96%29.84 "Hg4 mi
4:00 AM44 °FQuite cool.No wind97%29.86 "Hg1 mi
3:00 AM45 °FQuite cool.No wind97%29.88 "Hg0 mi
1:00 AM47 °FCool.1 mph97%29.91 "Hg4 mi
12:00 AM47 °FCool.1 mph96%29.92 "Hg1 mi
10:00 PM
Fri, Sep 30
48 °FCool.1 mph95%29.94 "Hg1 mi
9:00 PM49 °FCool.No wind93%29.93 "Hg3 mi
7:00 PM60 °FCool.2 mph67%29.91 "Hg6 mi
Weather by CustomWeather, © 2016

See weather overviewHow to use our weather pages